Location: ??
(35.4627°N, 139.3695°E)
Time: 15:46:17
(UTC+00:00)

Cosmos 2263 Rocket - Pass Details

Date: 25 November 2020
Orbit: 823 x 849 km, 71.0° (Epoch: 20 January)

Event Time Altitude Azimuth Distance (km) Brightness Sun altitude
Exits shadow 19:17:21 55° 209° (SSW) 1,000 2.4 -26.3°
Maximum altitude 19:18:38 84° 291° (WNW) 851 2.0 -26.1°
Drops below altitude 10° 19:24:20 10° 20° (NNE) 2,472 4.7 -24.9°
Sets 19:26:48 0° 21° (NNE) 3,413 5.5 -24.4°
